Date String (YYYY-MM-DD hh:mm:ss) UTC,Instrument flags,absolute air pressure of the measurement (hPa),sample flow rate (lpm),inlet stack bypass flow (lpm),air temperature of the measurement (°C),ambient temperature measured by the external sensor (°C),aerosol sample conditioner tube jacket temperature (°C),OPC LED temperature (°C),internal box temperature (°C),relative humidity of the measurement (%),span deviation,mass concentration of particles derived from Lorenz-Mie calculation of OPC scattering (μg/m³),mass concentration of particles derived from Lorenz-Mie calculation of OPC scattering (μg/m³),mass concentration of particles derived from Lorenz-Mie calculation of OPC scattering (μg/m³)
DateTimeUTC,F1_M11,P_M11,Q1_M11,Q2_M11,T1_M11,T2_M11,T3_M11,T4_M11,T5_M11,U1_M11,ZSPAN_M11,X2_M11,X0_M11,X1_M11
2023-09-28 05:00:00,SystemResetWarning,0828.4,4.99,000.00,028.4,027.2,000.0,036.8,030.2,15.3,0000.9,0006.28,0013.91,0005.31
2023-09-28 05:01:00,SystemResetWarning,0828.4,5.00,000.00,028.4,027.3,000.0,036.8,030.3,15.3,0004.5,0006.34,0014.01,0005.33
2023-09-28 05:02:00,SystemResetWarning,0828.4,5.00,000.00,028.4,027.4,000.0,036.8,030.3,15.3,0004.3,0006.36,0014.12,0005.34
2023-09-28 05:03:00,SystemResetWarning,0828.4,4.99,000.00,028.5,027.4,000.0,036.8,030.3,15.2,0004.0,0006.36,0013.91,0005.33
2023-09-28 05:04:00,SystemResetWarning,0828.4,4.99,000.00,028.5,026.5,000.0,036.8,030.3,15.2,0001.3,0006.35,0014.31,0005.33
2023-09-28 05:05:00,SystemResetWarning,0828.4,5.01,000.00,028.4,024.7,000.0,036.8,030.1,15.3,0000.0,0006.35,0014.92,0005.34
2023-09-28 05:06:00,SystemResetWarning,0828.3,5.01,000.00,028.4,024.5,000.0,036.7,029.9,15.3,0000.0,0006.37,0014.43,0005.36
2023-09-28 05:07:00,SystemResetWarning,0828.3,5.00,000.00,028.3,024.7,000.0,036.7,029.8,15.3,0000.0,0006.41,0014.85,0005.37
2023-09-28 05:08:00,SystemResetWarning,0828.3,5.00,000.00,028.2,025.1,000.0,036.7,029.8,15.4,0000.0,0006.43,0015.83,0005.39
2023-09-28 05:09:00,SystemResetWarning,0828.3,5.00,000.00,028.2,025.4,000.0,036.7,029.8,15.4,0000.0,0006.40,0016.12,0005.38
2023-09-28 05:10:00,SystemResetWarning,0828.3,5.00,000.00,028.2,025.8,000.0,036.7,029.9,15.4,0000.0,0006.39,0016.14,0005.37
2023-09-28 05:11:00,SystemResetWarning,0828.4,5.00,000.00,028.2,026.1,000.0,036.7,029.9,15.4,0000.0,0006.30,0015.75,0005.35
2023-09-28 05:12:00,SystemResetWarning,0828.4,5.00,000.00,028.2,026.3,000.0,036.7,029.9,15.4,0000.0,0006.24,0016.11,0005.33
2023-09-28 05:13:00,SystemResetWarning,0828.3,5.00,000.00,028.2,026.5,000.0,036.7,030.0,15.4,0000.0,0006.24,0016.64,0005.32
2023-09-28 05:14:00,SystemResetWarning,0828.3,5.00,000.00,028.2,026.7,000.0,036.7,030.0,15.4,0000.0,0006.27,0017.30,0005.34
2023-09-28 05:15:00,SystemResetWarning,0828.4,4.99,000.00,028.3,026.8,000.0,036.8,030.1,15.3,0000.5,0006.25,0017.98,0005.34
2023-09-28 05:16:00,SystemResetWarning,0828.3,5.00,000.00,028.3,027.0,000.0,036.8,030.1,15.3,0001.9,0006.23,0017.76,0005.33
2023-09-28 05:17:00,SystemResetWarning,0828.3,5.00,000.00,028.3,027.1,000.0,036.8,030.1,15.3,0001.8,0006.21,0017.63,0005.30
2023-09-28 05:18:00,SystemResetWarning,0828.3,5.00,000.00,028.4,027.1,000.0,036.8,030.2,15.3,0001.8,0006.16,0017.12,0005.29
2023-09-28 05:19:00,SystemResetWarning,0828.3,5.00,000.00,028.4,027.2,000.0,036.8,030.2,15.2,0002.4,0006.15,0015.60,0005.26
2023-09-28 05:20:00,SystemResetWarning,0828.3,5.00,000.00,028.4,027.3,000.0,036.8,030.3,15.2,0001.7,0006.18,0015.56,0005.26
2023-09-28 05:21:00,SystemResetWarning,0828.3,5.00,000.00,028.5,027.4,000.0,036.8,030.3,15.1,0001.4,0006.20,0015.01,0005.27
2023-09-28 05:22:00,SystemResetWarning,0828.3,5.00,000.00,028.5,027.4,000.0,036.9,030.3,15.1,0001.1,0006.22,0015.22,0005.28
2023-09-28 05:23:00,SystemResetWarning,0828.4,5.01,000.00,028.5,027.5,000.0,036.9,030.4,15.1,0001.6,0006.24,0015.46,0005.29
2023-09-28 05:24:00,SystemResetWarning,0828.3,5.00,000.00,028.6,027.0,000.0,036.9,030.4,15.0,0001.4,0006.24,0014.83,0005.29
2023-09-28 05:25:00,SystemResetWarning,0828.3,4.99,000.00,028.5,025.0,000.0,036.8,030.2,15.0,0000.0,0006.23,0013.83,0005.29
2023-09-28 05:26:00,SystemResetWarning,0828.3,5.00,000.00,028.4,024.4,000.0,036.8,030.0,15.0,0000.0,0006.21,0012.67,0005.29
2023-09-28 05:27:00,SystemResetWarning,0828.3,5.01,000.00,028.3,024.6,000.0,036.8,029.8,15.1,0000.0,0006.22,0012.93,0005.29
2023-09-28 05:28:00,SystemResetWarning,0828.2,5.00,000.00,028.2,024.9,000.0,036.8,029.8,15.2,0000.0,0006.28,0013.56,0005.31
2023-09-28 05:29:00,SystemResetWarning,0828.3,5.00,000.00,028.2,025.3,000.0,036.8,029.8,15.2,0000.0,0006.33,0013.65,0005.32
2023-09-28 05:30:00,SystemResetWarning,0828.3,5.00,000.00,028.2,025.6,000.0,036.8,029.9,15.2,0000.0,0006.32,0013.86,0005.33
2023-09-28 05:31:00,SystemResetWarning,0828.3,5.00,000.00,028.2,026.0,000.0,036.8,029.9,15.2,0000.0,0006.31,0014.19,0005.33
2023-09-28 05:32:00,SystemResetWarning,0828.3,4.99,000.00,028.2,026.2,000.0,036.8,029.9,15.2,0000.0,0006.27,0014.34,0005.33
2023-09-28 05:33:00,SystemResetWarning,0828.3,4.99,000.00,028.2,026.4,000.0,036.8,030.0,15.2,0000.0,0006.29,0014.42,0005.33
2023-09-28 05:34:00,SystemResetWarning,0828.3,4.99,000.00,028.2,026.6,000.0,036.8,030.1,15.2,0000.0,0006.32,0013.49,0005.34
2023-09-28 05:35:00,SystemResetWarning,0828.3,5.01,000.00,028.3,026.8,000.0,036.8,030.1,15.1,0000.0,0006.29,0013.29,0005.34
2023-09-28 05:36:00,SystemResetWarning,0828.3,5.00,000.00,028.3,026.9,000.0,036.8,030.1,15.0,0000.0,0006.26,0013.20,0005.33
2023-09-28 05:37:00,SystemResetWarning,0828.3,5.01,000.00,028.3,027.0,000.0,036.8,030.2,15.0,0000.0,0006.26,0013.88,0005.33
2023-09-28 05:38:00,SystemResetWarning,0828.3,5.01,000.00,028.4,027.1,000.0,036.8,030.2,15.0,0000.0,0006.26,0013.15,0005.33
2023-09-28 05:39:00,SystemResetWarning,0828.3,5.00,000.00,028.4,027.2,000.0,036.8,030.2,15.1,0000.0,0006.21,0012.36,0005.33
2023-09-28 05:40:00,SystemResetWarning,0828.4,5.00,000.00,028.4,027.3,000.0,036.8,030.3,15.0,0000.0,0006.18,0012.56,0005.33
2023-09-28 05:41:00,SystemResetWarning,0828.3,5.00,000.00,028.5,027.3,000.0,036.9,030.3,15.2,0000.0,0006.20,0012.42,0005.33
2023-09-28 05:42:00,SystemResetWarning,0828.3,5.00,000.00,028.5,027.4,000.0,036.9,030.3,14.9,0000.0,0006.19,0012.16,0005.33
2023-09-28 05:43:00,SystemResetWarning,0828.4,5.00,000.00,028.5,027.4,000.0,036.9,030.4,14.8,0000.0,0006.19,0011.77,0005.33
2023-09-28 05:44:00,SystemResetWarning,0828.3,5.00,000.00,028.6,027.3,000.0,036.9,030.4,14.7,0000.0,0006.19,0012.47,0005.32
2023-09-28 05:45:00,SystemResetWarning,0828.3,4.98,000.00,028.5,025.5,000.0,036.9,030.2,14.7,0000.0,0006.17,0014.48,0005.32
2023-09-28 05:46:00,SystemResetWarning,0828.4,5.00,000.00,028.5,024.5,000.0,036.8,030.1,14.7,0000.0,0006.16,0014.68,0005.32
2023-09-28 05:47:00,SystemResetWarning,0828.3,5.00,000.00,028.4,024.5,000.0,036.8,029.9,14.8,0000.0,0006.16,0014.71,0005.33
2023-09-28 05:48:00,SystemResetWarning,0828.3,5.02,000.00,028.3,024.8,000.0,036.8,029.8,14.7,0000.0,0006.16,0014.15,0005.32
2023-09-28 05:49:00,SystemResetWarning,0828.4,5.00,000.00,028.2,025.2,000.0,036.8,029.8,14.8,0000.0,0006.20,0014.37,0005.33
2023-09-28 05:50:00,SystemResetWarning,0828.3,5.00,000.00,028.2,025.6,000.0,036.8,029.8,14.8,0000.0,0006.18,0014.82,0005.31
2023-09-28 05:51:00,SystemResetWarning,0828.3,5.01,000.00,028.2,025.9,000.0,036.8,029.9,14.8,0000.0,0006.20,0015.29,0005.30
2023-09-28 05:52:00,SystemResetWarning,0828.4,5.00,000.00,028.2,026.2,000.0,036.8,030.0,14.7,0000.0,0006.17,0016.51,0005.29
2023-09-28 05:53:00,SystemResetWarning,0828.4,5.00,000.00,028.2,026.4,000.0,036.8,030.0,14.6,0000.0,0006.16,0016.58,0005.29
2023-09-28 05:54:00,SystemResetWarning,0828.4,5.00,000.00,028.2,026.6,000.0,036.8,030.0,14.7,0000.0,0006.15,0016.55,0005.29
2023-09-28 05:55:00,SystemResetWarning,0828.4,5.00,000.00,028.3,026.8,000.0,036.8,030.1,14.5,0000.0,0006.12,0016.05,0005.29
2023-09-28 05:56:00,SystemResetWarning,0828.4,4.99,000.00,028.3,026.9,000.0,036.8,030.1,14.4,0000.0,0006.10,0013.96,0005.28
2023-09-28 05:57:00,SystemResetWarning,0828.3,4.99,000.00,028.3,027.0,000.0,036.8,030.1,14.3,0000.0,0006.12,0013.68,0005.28
2023-09-28 05:58:00,SystemResetWarning,0828.3,5.00,000.00,028.4,027.1,000.0,036.8,030.2,14.2,0000.0,0006.13,0014.17,0005.27
2023-09-28 05:59:00,SystemResetWarning,0828.3,5.00,000.00,028.4,027.2,000.0,036.8,030.2,14.0,0000.0,0006.18,0014.87,0005.27
